Miscellaneous Local Product
Issued by NWS Hastings, NE

Home | Current Version | Previous Version | Graphics & Text | Print | Product List | Glossary On
Versions: 1 2 3 4 5 6 7 8 9 10 11 12 13 14 15 16 17 18 19 20 21 22 23 24 25 26 27 28 29 30 31 32 33 34 35 36 37 38 39 40 41 42 43 44 45 46 47 48 49 50
224
AXUS43 KGID 241102
MISGRI

GID CWA HOURLY WEATHER ROUNDUP
NATIONAL WEATHER SERVICE HASTINGS NE
600 AM CDT FRI MAR 24 2017

NOTE: "FAIR" INDICATES FEW OR NO CLOUDS BELOW 12,000 FEET WITH NO
SIGNIFICANT WEATHER AND/OR OBSTRUCTIONS TO VISIBILITY.

...SOUTH CENTRAL NEBRASKA...

CITY           SKY/WX    TMP DP  RH WIND       PRES   REMARKS
GRAND ISLAND   LGT RAIN  53  53 100 NE13      29.76R
HASTINGS       CLOUDY    54  52  93 NE14      29.74R
KEARNEY        CLOUDY    54  50  87 NE18      29.75R
ORD            CLOUDY    44  39  82 N18       29.81R
YORK           CLOUDY    55  54  94 NE13      29.74R
AURORA         DRIZZLE   54  53  97 NE8       29.75R
LEXINGTON      CLOUDY    50  47  88 NE21G29   29.76R
HOLDREGE       CLOUDY    53  51  93 NE22G28   29.72R
HEBRON         CLOUDY    58  55  89 E9        29.70F

...NEBRASKA PANHANDLE...

CITY           SKY/WX    TMP DP  RH WIND       PRES   REMARKS
CHADRON        CLOUDY    38  35  89 N6        30.02R WCI  33
ALLIANCE       CLOUDY    40  37  89 N22       29.94R WCI  30
SCOTTSBLUFF    CLOUDY    41  35  79 N13G22    29.99R
SIDNEY         CLOUDY    40  37  89 N28G36    29.88R WCI  29

...WESTERN AND NORTH CENTRAL NEBRASKA...

CITY           SKY/WX    TMP DP  RH WIND       PRES   REMARKS
VALENTINE      CLOUDY    42  36  79 N15       29.92R
AINSWORTH      CLOUDY    39  38  97 N13       29.90R WCI  32
ONEILL         CLOUDY    41  40  97 N21       29.86S FOG
BROKEN BOW     CLOUDY    47  44  90 N24G30    29.81R
IMPERIAL       LGT RAIN  46  44  93 N23G33    29.76R FOG
NORTH PLATTE   CLOUDY    48  44  86 N21G31    29.79R
MCCOOK         CLOUDY    50  49  96 NE24G37   29.71R

...EASTERN NEBRASKA...

CITY           SKY/WX    TMP DP  RH WIND       PRES   REMARKS
NORFOLK        CLOUDY    46  43  89 N18G24    29.76F
SO SIOUX CITY  CLOUDY    46  46 100 N14       29.77F
TEKAMAH        LGT RAIN  51  49  92 N9        29.75R FOG
COLUMBUS       CLOUDY    54  48  82 N12       29.79R
ALBION         CLOUDY    48  44  87 N16G22    29.79R
OMAHA EPPLEY   CLOUDY    54  50  86 N6        29.73F
OFFUTT AFB     CLOUDY    57  53  89 CALM      29.74S
MILLARD        DRIZZLE   58  56  94 NW6       29.74S
LINCOLN        LGT RAIN  55  54  96 NE16      29.73F FOG
NEBRASKA CITY  CLOUDY    63  43  49 CALM      29.75R
BEATRICE       RAIN      60  55  83 CALM      29.75R
FALLS CITY     CLOUDY    66  49  54 S9        29.72R

...NORTHERN KANSAS...

CITY           SKY/WX    TMP DP  RH WIND       PRES   REMARKS
GOODLAND       CLOUDY    49  49 100 NE31G39   29.60F FOG
HILL CITY      CLOUDY    56  54  93 E12       29.65R
NORTON         CLOUDY    54  48  82 NE16G24   29.66R
PHILLIPSBURG   CLOUDY    57  55  94 NE15G21   29.65F
HAYS             N/A     58  45  62 SE10      29.60F
RUSSELL        CLOUDY    61  45  55 S13       29.61R
CONCORDIA      CLOUDY    67  45  45 S13G22    29.67F
SALINA         MOCLDY    68  42  38 S17G30    29.66R
TOPEKA         CLOUDY    69  47  45 S20G29    29.71F



USA.gov is the U.S. government's official web portal to all federal, state and local government web resources and services.